Location: Baili�vre
(50.0696°N, 4.2409°E)
Time: 05:23:49
(UTC+00:00)

Cosmos 2242 Rocket - Pass Details

Date: 08 August 2020
Orbit: 618 x 652 km, 82.5° (Epoch: 19 September)

Event Time Altitude Azimuth Distance (km) Brightness Sun altitude
Rises 20:38:33 0° 356° (N) 2,936 7.8 -12.0°
Reaches altitude 10° 20:40:59 10° 5° (N) 2,018 6.7 -12.3°
Maximum altitude 20:45:05 35° 72° (ENE) 1,018 4.4 -12.8°
Enters shadow 20:47:33 20° 126° (SE) 1,455 4.8 -13.0°
